星链-34794 (STARLINK-34794)

导读

STARLINK-34794是美国于2025年7月31日发射的星链系列卫星,归属于SpaceX公司的星链互联网星座项目。星链项目旨在构建全球卫星互联网,为全球偏远、网络覆盖不足区域提供高速低延迟网络服务。该卫星是星链大规模组网中的一员,进一步扩充了星座在轨卫星规模,推进全球卫星互联网络的覆盖完善。

Basic Information
目录编号:
65070
目录名称:
STARLINK-34794
国际标识:
2025-165Q
轨道中心:
EARTH
卫星名称:
星链-34794
卫星全名:
星链-34794 (STARLINK-34794)
卫星状态:
在轨 (已飞行409 天)
发射日期:
2025-07-31 UTC
国别 :
美国 (US)
星等 :
--
This satellite is enrolled in the Space Conjunction Data Service (SCDS) and the current flight risk assessment level is: No High Risk
Orbit Information
数据来源 国际轨道数据
星历时间: 2026-09-12T14:00:02+0800
20小时前
查看轨道信息
半长轴: 6880.392km
偏心率: 0.0000809
轨道倾角: 97.279°
近地点辐角 135.917°
升交点赤经 326.579°
平近点角 165.756°
近地点: 501.698km
远地点: 502.812km
周期: 94.663分钟
每日圈数: 15.211886
Detailed Information
固有亮度:
5
最大亮度:
2.5
卫星平台:
Starlink V1.0
覆盖范围:
全球
运营商:
太空探索技术公司
运营商所在国:
美国
制造商(研发单位):
太空探索技术公司
制造商所在国:
美国
使用方式:
暂无
Satellite Introduction
Starlink 计划是 SpaceX 推出的全球卫星互联网项目,通过发射低轨道卫星,为全球尤其是偏远地区提供高速、低延迟的互联网服务。自 2019 年起,Starlink 已部署数千颗卫星,旨在缩小全球数字鸿沟,推动互联网普及。该项目还为军事、航空等行业提供通信支持,带来广泛经济效益。
2D Orbit Map
3D Orbit Map
Orbit Altitude Analysis Chart
Orbit Inclination Analysis Chart
Orbit Comprehensive Analysis Chart
View Comprehensive Chart
Conjunction Data List
Event ID Objects TCA Miss Dist (km) Collision Risk Probability Collision Risk Index (CRI) Action
CDM_260914-051205-815906-507021
2026-09-14T
05:12:35+0000
0.938 km
远距离
2.821357E-5 中风险 0.64
CDM_260914-033805-815906-507021
2026-09-14T
03:38:34+0000
2.404 km
极远距离
1.623825E-6 低风险 0.39
CDM_260913-091305-301706-507021
2026-09-13T
09:13:11+0000
2.161 km
极远距离
1.602738E-6 低风险 0.39
CDM_260914-190403-074406-507021
2026-09-14T
19:04:15+0000
2.564 km
极远距离
1.552286E-6 低风险 0.39
CDM_260913-122105-301706-507021
2026-09-13T
12:21:54+0000
2.809 km
极远距离
1.016156E-6 低风险 0.35
Miss Distance Evolution Trend with All Objects
Collision Probability Evolution Trend with All Objects